Погода Казанская

Хотите узнать прогноз погоды Казанская? Тогда Вам сюда: Погода Казанская

Поиск расширенной информации на нашем сайте:

Полезная информация:

Новости сайта



02.01.2020
Опубликован Долгосрочный прогноз погоды по городам России и ближнего зарубежья на январь 2020 года.
Карты: Прогноз на январь и февраль 2020 года, Сравнение прогнозируемой аномалии приземной температуры воздуха на январь 2020 года по разным моделям.




Погода Казанская - сегодня

Время (UTC), дата Ветер
(°,м/с) 
Видим.   Явления Облачность Т
(°С)
Тd
(°С)
f(%) Тe
(°С)
Pmin
(гПа)
dP
(гПа)
Po
(мм)
O2
(г/м3)
Тmin Tmax R s Состояние
почвы
15 18.10.20 320 (СЗ) 20000 м    10/0 средняя, верхняя 
[Ac trans|Cs]
+16.5 +3.4 42 +17  1008.5  750  284    +22.2       
18 18.10.20 300 (СЗ) 20000 м    ясно 
+12.2 +5.3 63 +13  1014.5  1.9  754  290           
21 18.10.20 310 (СЗ) 20000 м    10/0 верхняя 
[Cs]
+9.6 +6.3 80 +11  1015.8  1.2  755  293           
00 19.10.20 240 (ЮЗ) 20000 м    ясно 
+7.3 +5.9 91 +8  1017.5  1.6  757  296           
03 19.10.20 290 (З) 20000 м    ясно 
+4.5 +4 97 +5  1019  1.4  758  300  +4.5        сухая 
06 19.10.20 230 (ЮЗ) 20000 м    8/0 верхняя 
[Cs]
+6.8 +2.3 73 +8  1020  758  298  +3.7         
09 19.10.20 230 (ЮЗ) 20000 м    4/0 верхняя 
[Ci fib]
+12.4 -0.6 41 +14  1019.2  -0.6  758  292           
12 19.10.20 280 (З) 20000 м    8/0 средняя, верхняя 
[Ac As|Cs]
+14.5 -0.7 35 +15  1018.2  -1  757  290           
15 19.10.20 290 (З) 20000 м    10/0 средняя 
[Ac und]
+10.4 +1.4 54 +12  1018.3  757  294    +15       
18 19.10.20 280 (З) 20000 м    10/3 600 м средняя 
[Sc|Ac und]
+8.9 +2.1 62 +10  1019.1  0.8  758  295           
21 19.10.20 260 (З) 20000 м    ясно 
+7.1 +2 70 +8  1019.9  0.7  758  298           
00 20.10.20 290 (З) 20000 м    10/0 верхняя 
[Cs]
+7.4 +2.6 72 +8  1020.7  0.8  759  297           
03 20.10.20 290 (З) 20000 м    3/0 верхняя 
[Ci fib]
+4.9 +3.3 89 +5  1022  1.2  760  300  +4.9        сухая 
06 20.10.20 290 (З) 20000 м    ясно 
+7.5 +3.6 76 +7  1023  1.1  761  298  +4.3         
09 20.10.20 280 (З) 20000 м    3/3 1000 м 
[Cu hum]
+11.5 -4.2 33 +11  1022.6  -0.2  761  295           
12 20.10.20 290 (З) 20000 м    6/4 1000 м средняя 
[Cu med, cong|Ac cuf]
+12.5 -4.4 30 +12  1021.6  -1  760  293           
15 20.10.20 260 (З) 2{10}  20000 м    8/3 1000 м средняя 
[Sc diur, vesp|Ac trans]
+9.3 -4 39 +9  1021.8  0.1  760  297    +12.9       
18 20.10.20 270 (З) 20000 м    9/9 1000 м 
[Sc]
+7.4 -2.7 49 +7  1022.4  0.5  760  299           
21 20.10.20 270 (З) 20000 м    ясно 
+4.8 -1.2 65 +4  1023.7  1.2  761  302           
00 21.10.20 280 (З) 20000 м    ясно 
+2.9 -1 75 +2  1024.8  762  304           
03 21.10.20 290 (З) 20000 м    ясно 
+1.9 -0.6 83 +1  1026.1  1.3  763  305  +1.9        сухая 
06 21.10.20 290 (З) 20000 м    ясно 
+3.9 -0 76 +3  1027.7  1.7  764  304  +1.2         
09 21.10.20 290 (З) 20000 м    10/0 верхняя 
[Cs]
+8.1 -3 45 +8  1027.5  0.1  764  299           
12 21.10.20 290 (З) 20000 м    10/0 верхняя 
[Cs]
+8.9 -4 40 +8  1026.8  -0.7  764  298           
15 21.10.20 тихо ()   20000 м    10/0 верхняя 
[Cs]
+7 -2.8 50 +7  1026.1  -0.7  763  300    +9.4       
Время (UTC), дата Ветер
(°,м/с) 
Видим.   Явления Облачность Т
(°С)
Тd
(°С)
f(%) Тe
(°С)
Pmin
(гПа)
dP
(гПа)
Po
(мм)
O2
(г/м3)
Тmin Tmax R s Состояние
почвы

Для получения пояснительной информации подведите курсор к названию столбца.

ПОГОДА Казанская - архив

Всё, что Вы хотите узнать о погоде Казанская - удобно и подробно!

Выберите нужную дату (начиная с 1 января 2019* года) и нажмите кнопку "Найти".
Будут отображены архивные сводки погоды по пункту Казанская, начиная с указанной даты.


Отображать данные в формате CSV (для использования в таблицах Excel)


Внимание! Наш архив погоды предназначен исключительно для личного некоммерческого использования в познавательных целях. Если Вам необходимы официальные справки о состоянии погоды (для производственных, юридических, коммерческих и т.п. целей), обращайтесь в органы Росгидромета.

*Примечание: данная дата относится к архиву по метеостанциям СССР (Россия, СНГ, Балтия).
Архив по метеостанциям Зарубежной Европы и Азии (кроме Китая) хранится 10 дней, по другим регионам земного шара (Китай, Африка, Америка, Австралия, Океания) - 1 день.

Казанская - район местоположения метеостанции


Название, широта, долгота, высота метеостанции:
Казанская 49.8°ш. 41.2°д. 72 м над ур. моря [Российская Федерация]

Дополнительная информация

В oтличие oт бoльшинства пoгoдных сайтoв мы публикуем пoдрoбную метеoинфoрмацию в детальнoм прoфессиoнальнoм фoрмате.

Характеристики температуры и влажнoсти вoздуха измеряются на высoте 2 м в тени вдали oт зданий и деревьев.
Скoрoсть ветра измеряется на высoте 10 м (на урoвне рoста челoвека скoрoсть ветра ниже в 1.5-2 раза). Если метеoстанция нахoдится в гoрoде или в лесу, тo скoрoсть ветра занижена на 2-4 м/с пo сравнению с oткрытым местoм. Скoрoсть ветра над акватoриями крупных рек и oзёр, а также на вершинах хoлмoв на 2-5 м/с выше, чем в oбычных услoвиях.
Атмoсфернoе давление в разных тoчках местнoсти мoжет значительнo oтличаться oт давления на метеoстанции, в зависимoсти oт услoвий рельефа (при пoдъёме на 10 м давление пoнижается примернo на 1 мм рт.ст.).